Hourly Data Report for July 19, 2021

PRINCE RUPERT
BRITISH COLUMBIA
Current Station Operator: NAVCAN

54°17'10.000" N
130°26'41.000" W
35.40 m
1066482
71022
YPR

Download Data

Hourly Data (July 2021)
Hourly Data Report for July 19, 2021
TIME
LST
Temp Definition
°C
Dew Point Definition
°C
Rel Hum Definition
%
Precip. Amount Definition
mm

Wind Dir Definition
10's deg

Wind Spd Definition
km/h
Visibility Definition
km
Stn Press Definition
kPa
Hmdx Definition


Wind Chill Definition


Weather Definition


00:00 12.3 11.1 92 0.0 7 8 16.1 101.78     LegendNANA
01:00 11.3 10.5 95 0.0 LegendMM 4 16.1 101.74     LegendNANA
02:00 10.5 9.7 95 0.0   0 16.1 101.72     LegendNANA
03:00 10.6 9.8 95 0.0   0 16.1 101.68     LegendNANA
04:00 10.3 9.6 96 0.0   0 16.1 101.67     LegendNANA
05:00 10.8 10.0 95 0.0 LegendMM 4 16.1 101.65     LegendNANA
06:00 11.5 10.9 96 0.0 14 4 16.1 101.63     LegendNANA
07:00 12.0 11.5 97 0.0 LegendMM 4 16.1 101.63     LegendNANA
08:00 13.2 12.3 94 0.0 16 5 16.1 101.64     LegendNANA
09:00 14.4 12.1 86 0.0 20 5 16.1 101.63     LegendNANA
10:00 14.9 12.3 84 0.0 26 5 16.1 101.60     LegendNANA
11:00 15.3 11.5 78 0.0 LegendMM 4 16.1 101.59     LegendNANA
12:00 15.4 11.5 78 0.0 26 5 16.1 101.61     LegendNANA
13:00 16.8 10.7 67 0.0 21 8 16.1 101.61     LegendNANA
14:00 17.4 12.0 70 0.0 25 11 16.1 101.59     LegendNANA
15:00 18.3 12.5 69 0.0 31 5 16.1 101.58     LegendNANA
16:00 16.4 11.6 73 0.0 28 8 16.1 101.56     LegendNANA
17:00 17.5 11.5 67 0.0 28 8 16.1 101.51     LegendNANA
18:00 16.1 13.1 82 0.0 23 8 16.1 101.49     LegendNANA
19:00 16.1 12.3 78 0.0 31 9 16.1 101.44     LegendNANA
20:00 14.7 12.2 85 0.0 29 5 16.1 101.43     LegendNANA
21:00 13.6 12.0 90 0.0   0 16.1 101.41     LegendNANA
22:00 13.6 12.0 90 0.0 33 4 16.1 101.38     LegendNANA
23:00 14.0 12.1 88 0.0   0 16.1 101.33     LegendNANA

Notes on Data Quality.

Legend

  • E = Estimated
  • M = Missing
  • NA = Not Available*
  • [empty] = Indicates an unobserved value
Date modified: